Location: Arroyo Retuerta
(40.5469°N, 4.3534°W)
Time: 04:29:05
(UTC+00:00)

Cosmos 968 Rocket - Pass Details

Date: 01 June 2020
Orbit: 741 x 770 km, 74.0° (Epoch: 05 July)

Event Time Altitude Azimuth Distance (km) Brightness Sun altitude
Rises 22:08:59 0° 349° (N) 3,208 8.0 -20.7°
Reaches altitude 10° 22:11:35 10° 359° (N) 2,275 6.8 -20.9°
Maximum altitude 22:16:14 33° 63° (ENE) 1,229 4.5 -21.4°
Enters shadow 22:17:31 29° 92° (E) 1,337 4.5 -21.5°
